Simultaneous Nadir Overpasses (SNOs) Predictions

Prediction of SNOs between LANDSAT-8 and METOP-B Satellite Orbit:

Table of predicted SNOs for the next 14.0 days since TLE Epoch: 8/20/2022
Index Date (LANDSAT-8) Time (LANDSAT-8) Lat,Lon (LANDSAT-8) SZA (LANDSAT-8 ) Date (METOP-B) Time (METOP-B) Lat,Lon (METOP-B) SZA (METOP-B ) Distance(km) Time Diff (sec)
1 08/21/2022 22:52:46 81.17,-122.35 71.41 08/21/2022 22:51:57 81.17,-122.20 71.41 2.59 49
2 08/21/2022 23:42:12 -81.19, 45.58 108.54 08/21/2022 23:42:37 -81.18, 45.39 108.55 3.27 25
3 08/24/2022 18:27:01 81.18, -55.84 72.39 08/24/2022 18:26:18 81.17, -55.93 72.36 1.73 43
4 08/24/2022 19:16:27 -81.19, 112.12 107.55 08/24/2022 19:16:57 -81.19, 112.05 107.55 1.22 30
5 08/27/2022 14:01:16 81.17, 10.59 73.38 08/27/2022 14:00:38 81.18, 10.68 73.38 1.59 38
6 08/27/2022 14:50:42 -81.20, 178.57 106.56 08/27/2022 14:51:17 -81.20, 178.68 106.53 1.92 35
7 08/30/2022 09:35:30 81.17, 76.94 74.38 08/30/2022 09:34:58 81.17, 76.88 74.37 0.90 32
8 08/30/2022 10:24:56 -81.19,-115.06 105.55 08/30/2022 10:25:37 -81.19,-115.10 105.54 0.70 41
9 09/02/2022 05:09:44 81.18, 143.57 75.45 09/02/2022 05:09:18 81.17, 143.43 75.42 2.45 26



Historial Predications of SNOs between LANDSAT-8 and METOP-B
